Location: Winthrop
(48.4780°N, 120.1850°W)
Time: 16:05:43
(UTC-07:00)

ISS - Visible Passes

Search period start: 27 May 2022 00:00
Search period end: 06 June 2022 00:00
Orbit: 414 x 421 km, 51.6° (Epoch: 27 May)

Date Brightness Start Highest point End Pass type
(mag) Time Alt. Az. Time Alt. Az. Time Alt. Az.
27 May -3.4 22:06:54 10° WNW 22:10:10 50° SSW 22:12:26 18° SE visible
28 May -1.7 22:56:19 10° W 22:58:22 15° SW 22:58:55 15° SSW visible
29 May -2.1 22:07:40 10° W 22:10:24 23° SW 22:12:32 13° S visible
31 May -1.1 22:09:56 10° SW 22:10:22 10° SW 22:10:49 10° SW visible
